TimeMST,TemperatureF,Dew PointF,Humidity,Sea Level PressureIn,VisibilityMPH,Wind Direction,Wind SpeedMPH,Gust SpeedMPH,PrecipitationIn,Events,Conditions,WindDirDegrees,DateUTC
12:43 AM,39.2,35.6,87,29.63,8.0,SW,15.0,21.9,0.03,Rain,Rain,220,2012-12-19 07:43:00
12:54 AM,39.2,35.6,87,29.63,10.0,SSW,8.1,-,0.03,Rain,Light Rain,200,2012-12-19 07:54:00
12:56 AM,39.9,36.0,86,29.57,10.0,SSW,9.2,-,0.03,Rain,Light Rain,200,2012-12-19 07:56:00
1:21 AM,37.4,33.8,87,29.66,9.0,West,15.0,21.9,0.01,Rain,Light Rain,280,2012-12-19 08:21:00
1:56 AM,34.0,30.9,89,29.63,8.0,West,10.4,-,0.07,Snow,Light Snow,260,2012-12-19 08:56:00
2:24 AM,33.8,32.0,93,29.66,10.0,WNW,8.1,-,0.01,Rain,Light Rain,290,2012-12-19 09:24:00
2:56 AM,34.0,27.0,75,29.63,10.0,WSW,21.9,32.2,0.01,,Mostly Cloudy,250,2012-12-19 09:56:00
3:56 AM,33.1,28.0,82,29.64,10.0,WNW,5.8,-,N/A,,Overcast,290,2012-12-19 10:56:00
4:56 AM,33.1,19.9,59,29.68,10.0,West,15.0,-,N/A,,Overcast,270,2012-12-19 11:56:00
5:56 AM,30.9,19.0,61,29.71,10.0,WSW,15.0,-,N/A,,Clear,240,2012-12-19 12:56:00
6:56 AM,28.9,19.9,69,29.78,10.0,WSW,19.6,-,N/A,,Clear,240,2012-12-19 13:56:00
7:56 AM,30.0,19.9,66,29.83,10.0,SW,12.7,-,N/A,,Clear,220,2012-12-19 14:56:00
8:56 AM,32.0,19.9,61,29.90,10.0,West,15.0,26.5,N/A,,Partly Cloudy,270,2012-12-19 15:56:00
9:56 AM,34.0,19.0,54,29.96,10.0,WNW,21.9,27.6,N/A,,Clear,290,2012-12-19 16:56:00
10:56 AM,34.0,17.1,50,30.03,10.0,NW,23.0,32.2,N/A,,Clear,310,2012-12-19 17:56:00
11:56 AM,35.1,15.1,44,30.06,10.0,NW,21.9,29.9,N/A,,Clear,310,2012-12-19 18:56:00
12:56 PM,36.0,17.1,46,30.07,10.0,NW,20.7,27.6,N/A,,Clear,320,2012-12-19 19:56:00
1:56 PM,37.0,8.1,30,30.11,10.0,NW,19.6,27.6,N/A,,Clear,320,2012-12-19 20:56:00
2:56 PM,36.0,7.0,30,30.14,10.0,NW,13.8,24.2,N/A,,Clear,320,2012-12-19 21:56:00
3:56 PM,36.0,6.1,29,30.18,10.0,NNW,9.2,-,N/A,,Clear,340,2012-12-19 22:56:00
4:56 PM,34.0,8.1,34,30.22,10.0,NNW,9.2,-,N/A,,Clear,340,2012-12-19 23:56:00
5:56 PM,30.9,10.9,43,30.28,10.0,NNW,6.9,-,N/A,,Clear,340,2012-12-20 00:56:00
6:56 PM,28.9,12.0,49,30.32,10.0,North,3.5,-,N/A,,Clear,360,2012-12-20 01:56:00
7:56 PM,25.0,14.0,63,30.36,10.0,Calm,Calm,-,N/A,,Clear,0,2012-12-20 02:56:00
8:56 PM,21.0,15.1,78,30.40,10.0,Calm,Calm,-,N/A,,Clear,0,2012-12-20 03:56:00
9:56 PM,21.9,14.0,72,30.42,10.0,West,8.1,-,N/A,,Clear,260,2012-12-20 04:56:00
10:56 PM,19.0,12.9,77,30.44,10.0,SW,4.6,-,N/A,,Clear,230,2012-12-20 05:56:00
11:56 PM,18.0,12.0,78,30.47,10.0,West,4.6,-,N/A,,Clear,260,2012-12-20 06:56:00